sat.trackr.live / text

‹ back to catalog

STARLINK-30397

NORAD 57771 · 2023-134A

PAYLOAD ACTIVE UNKNOWN

§ Identity

Operator
Country
US
Launch date
2023-09-04
Launch site
AFETR
Launch vehicle
Mass (kg)
RCS (m²)

Purposes: comms

External: N2YO · Heavens-Above · Gunter

§ Orbital elements

Epoch: 2026-09-20T03:28:22.378944Z

Period
94.27 min
Inclination
43.0021°
Eccentricity
0.0000872
Mean motion
15.27580266 rev/d
Perigee alt
482.5 km
Apogee alt
483.6 km
Semi-major
6,861.2 km
B*
3.1385e-5
RAAN
176.5319°
Arg perigee
263.1605°
Mean anomaly
96.9147°
Rev number
16,924

§ Raw data

STARLINK-303971 57771U 23134A   26263.14470346  .00000602  00000+0  31385-4 0  99992 57771  43.0021 176.5319 0000872 263.1605  96.9147 15.27580266169241

JSON: /api/v1/satellites/57771 · /tle

For live sub-satellite position, see the globe view (requires WebGL).

§ Visibility from observer

Set your observer location to see the next 7 days of passes ≥ 10°. The values pass through the URL so the page stays shareable.

No JS? Fill the form by hand. The geolocation button needs JavaScript.